EW2318 Weather Reports


time (UTC)temp
F
wind
direction
speed
knots
gust
knots
rain 1hr
in
rain 24hr
in
rain mn
in
humidity
%
barometer
mb
20260504130546 70 193 3.5 13.9 0.00 0.00 0.00 44 1015.7
20260504110544 68 240 3.5 10.4 0.00 0.00 0.00 48 1016.5
20260504100544 66 148 3.5 10.4 0.00 0.00 0.00 46 1017.2
20260504081555 62 269 2.6 8.7 0.00 0.00 0.00 51 1017.3
20260504081047 61 18 1.7 8.7 0.00 0.00 0.00 51 1017.2
20260504080545 61 240 4.3 8.7 0.00 0.00 0.00 51 1017.2
20260504050544 52 272 1.7 6.1 0.00 0.00 0.00 62 1017.1
20260504045543 52 310 1.7 3.5 0.00 0.00 0.00 62 1017.1
20260504045048 52 284 0.9 3.5 0.00 0.00 0.00 62 1017.1
20260504044556 52 286 1.7 3.5 0.00 0.00 0.00 62 1017.2
20260504044047 51 294 1.7 3.5 0.00 0.00 0.00 63 1017.1
20260504043547 51 292 0.9 3.5 0.00 0.00 0.00 64 1017.2
20260504043100 50 0 1.7 3.5 0.00 0.00 0.00 64 1017.1
20260504042545 50 313 0.9 3.5 0.00 0.00 0.00 64 1017.1
20260504042048 50 312 1.7 3.5 0.00 0.00 0.00 64 1017.2
20260504041552 49 300 1.7 3.5 0.00 0.00 0.00 65 1017.3
20260504041047 49 289 0.9 3.5 0.00 0.00 0.00 65 1017.2
20260504040544 48 277 0.9 4.3 0.00 0.00 0.00 66 1017.3
20260504040126 48 317 1.7 4.3 0.00 0.00 0.00 66 1017.3
20260504035547 47 311 0.9 3.5 0.00 0.00 0.00 66 1017.2
20260504035047 47 277 0.9 2.6 0.00 0.00 0.00 66 1017.2
20260504034550 47 290 0.9 4.3 0.00 0.00 0.00 65 1017.3
20260504034043 47 303 0.9 4.3 0.00 0.00 0.00 65 1017.4
20260504033545 47 292 0.9 3.5 0.00 0.00 0.00 65 1017.4
20260504033051 47 317 0.9 3.5 0.00 0.00 0.00 64 1017.4
20260504032547 47 309 0.9 2.6 0.00 0.00 0.00 64 1017.3
20260504032046 47 300 0.9 3.5 0.00 0.00 0.00 64 1017.2
20260504031556 47 293 0.9 3.5 0.00 0.00 0.00 63 1017.3
20260504031046 47 301 1.7 3.5 0.00 0.00 0.00 63 1017.3
20260504030545 47 298 1.7 3.5 0.00 0.00 0.00 63 1017.4
20260504030054 47 271 1.7 3.5 0.00 0.00 0.00 63 1017.4
20260504025545 47 275 1.7 5.2 0.00 0.00 0.00 63 1017.5
20260504025045 47 252 1.7 5.2 0.00 0.00 0.00 63 1017.4
20260504024551 47 286 1.7 5.2 0.00 0.00 0.00 63 1017.3
20260504024045 47 275 1.7 3.5 0.00 0.00 0.00 63 1017.3
20260504023545 47 288 1.7 2.6 0.00 0.00 0.00 63 1017.4
20260504023052 47 319 0.9 2.6 0.00 0.00 0.00 62 1017.3
20260504022544 47 319 0.9 2.6 0.00 0.00 0.00 62 1017.3
20260504022045 47 0 0.9 3.5 0.00 0.00 0.00 61 1017.4
20260504021552 48 0 1.7 3.5 0.00 0.00 0.00 61 1017.4
20260504021044 48 286 0.9 3.5 0.00 0.00 0.00 60 1017.5
20260504020544 48 310 0.9 3.5 0.00 0.00 0.00 59 1017.4
20260504020107 49 303 1.7 3.5 0.00 0.00 0.00 59 1017.4
20260504015548 49 296 0.9 3.5 0.00 0.00 0.00 58 1017.4
20260504015045 49 297 0.9 3.5 0.00 0.00 0.00 57 1017.4
20260504014552 50 296 1.7 3.5 0.00 0.00 0.00 56 1017.3
20260504014045 50 298 0.9 6.1 0.00 0.00 0.00 55 1017.3
20260504013547 51 296 1.7 6.1 0.00 0.00 0.00 54 1017.3
20260504013051 51 304 1.7 6.1 0.00 0.00 0.00 54 1017.2
20260504012549 51 266 1.7 3.5 0.00 0.00 0.00 53 1017.2
20260504012045 51 267 1.7 3.5 0.00 0.00 0.00 53 1017.2
20260504011549 51 290 1.7 6.1 0.00 0.00 0.00 52 1017.1
20260504011044 51 266 1.7 6.1 0.00 0.00 0.00 52 1017.2
20260504010545 51 267 2.6 6.1 0.00 0.00 0.00 52 1017.2
20260504010055 52 301 1.7 5.2 0.00 0.00 0.00 52 1017.1
20260504005546 52 277 1.7 6.1 0.00 0.00 0.00 51 1017.2
20260504005049 52 285 1.7 6.1 0.00 0.00 0.00 51 1017.3
20260504004549 52 272 1.7 6.1 0.00 0.00 0.00 51 1017.2
20260504004046 52 277 2.6 6.1 0.00 0.00 0.00 51 1017.1
20260504003546 52 286 1.7 5.2 0.00 0.00 0.00 50 1017.2
20260504003053 52 258 1.7 5.2 0.00 0.00 0.00 50 1017.2
20260504002543 52 251 1.7 5.2 0.00 0.00 0.00 50 1017.2
20260504002044 52 302 1.7 6.1 0.00 0.00 0.00 50 1017.2
20260504001554 53 305 2.6 8.7 0.00 0.00 0.00 50 1017.2
20260504001046 53 293 3.5 8.7 0.00 0.00 0.00 50 1017.2
20260504000544 53 254 3.5 7.8 0.00 0.00 0.00 50 1017.2
20260504000056 53 241 2.6 8.7 0.00 0.00 0.00 50 1017.3
20260503235545 53 281 2.6 8.7 0.00 0.00 0.00 50 1017.3
20260503235047 53 245 2.6 7.0 0.00 0.00 0.00 50 1017.3
20260503234622 53 238 2.6 7.0 0.00 0.00 0.00 50 1017.3
20260503234051 53 288 2.6 7.8 0.00 0.00 0.00 50 1017.4
20260503233547 53 268 3.5 7.8 0.00 0.00 0.00 49 1017.4
20260503233100 53 248 3.5 7.8 0.00 0.00 0.00 49 1017.4
20260503232543 53 256 3.5 7.0 0.00 0.00 0.00 49 1017.4
20260503232045 53 264 2.6 7.0 0.00 0.00 0.00 49 1017.5
20260503231558 54 252 2.6 7.8 0.00 0.00 0.00 48 1017.4
20260503231043 54 242 2.6 7.8 0.00 0.00 0.00 48 1017.4
20260503230546 54 319 2.6 7.0 0.00 0.00 0.00 48 1017.4
20260503230101 54 253 2.6 8.7 0.00 0.00 0.00 48 1017.5
20260503225544 54 281 2.6 8.7 0.00 0.00 0.00 48 1017.5
20260503225048 54 263 2.6 7.8 0.00 0.00 0.00 47 1017.5
20260503224557 54 277 3.5 7.8 0.00 0.00 0.00 47 1017.5
20260503224045 54 299 2.6 7.0 0.00 0.00 0.00 47 1017.5
20260503223544 54 242 2.6 7.8 0.00 0.00 0.00 47 1017.5
20260503223053 55 242 2.6 8.7 0.00 0.00 0.00 46 1017.6
20260503222548 55 249 3.5 8.7 0.00 0.00 0.00 46 1017.6
20260503222045 55 300 2.6 7.8 0.00 0.00 0.00 46 1017.6
20260503221601 55 264 3.5 7.8 0.00 0.00 0.00 45 1017.5
20260503221043 55 284 2.6 7.8 0.00 0.00 0.00 45 1017.5
20260503220544 55 167 2.6 7.0 0.00 0.00 0.00 46 1017.5
20260503220057 55 255 2.6 7.0 0.00 0.00 0.00 46 1017.7
20260503215543 55 303 1.7 7.0 0.00 0.00 0.00 46 1017.7
20260503215043 55 223 1.7 7.8 0.00 0.00 0.00 46 1017.6
20260503214557 55 290 1.7 7.8 0.00 0.00 0.00 46 1017.5
20260503214050 55 252 2.6 7.8 0.00 0.00 0.00 46 1017.7
20260503213544 54 254 0.9 3.5 0.00 0.00 0.00 47 1017.7
20260503213053 54 261 0.9 3.5 0.00 0.00 0.00 46 1017.8
20260503212544 54 258 0.9 3.5 0.00 0.00 0.00 47 1017.8
20260503212044 55 0 0.0 3.5 0.00 0.00 0.00 47 1017.7
20260503211552 55 282 0.0 2.6 0.00 0.00 0.00 47 1017.7
20260503211043 55 259 0.9 2.6 0.00 0.00 0.00 47 1017.7
20260503210544 55 272 0.9 5.2 0.00 0.00 0.00 46 1017.8
20260503210054 56 266 0.9 5.2 0.00 0.00 0.00 45 1017.8
20260503205545 56 250 1.7 5.2 0.00 0.00 0.00 45 1017.8
20260503205044 56 259 1.7 4.3 0.00 0.00 0.00 44 1017.8
20260503204555 56 249 0.9 3.5 0.00 0.00 0.00 44 1017.9
20260503204043 56 273 1.7 3.5 0.00 0.00 0.00 44 1018.0
20260503203544 56 221 0.9 5.2 0.00 0.00 0.00 44 1017.9
20260503203056 57 240 0.9 5.2 0.00 0.00 0.00 44 1017.9
20260503202543 57 227 0.9 4.3 0.00 0.00 0.00 45 1017.9
20260503202043 57 276 0.9 4.3 0.00 0.00 0.00 44 1017.9
20260503201553 57 278 0.9 6.1 0.00 0.00 0.00 44 1018.0
20260503201044 57 243 1.7 6.1 0.00 0.00 0.00 45 1018.0
20260503200544 56 219 1.7 6.1 0.00 0.00 0.00 45 1018.0
20260503200057 56 267 1.7 6.1 0.00 0.00 0.00 46 1018.1
20260503195548 56 287 0.9 3.5 0.00 0.00 0.00 46 1018.0
20260503195047 56 269 0.9 3.5 0.00 0.00 0.00 47 1018.1
20260503194557 57 269 0.9 3.5 0.00 0.00 0.00 47 1018.1
20260503194044 57 250 0.9 3.5 0.00 0.00 0.00 47 1018.1
20260503193543 57 0 0.9 6.1 0.00 0.00 0.00 48 1018.1
20260503193050 57 279 0.9 6.1 0.00 0.00 0.00 48 1018.1
20260503192544 57 248 0.9 6.1 0.00 0.00 0.00 48 1018.2
20260503192043 57 319 1.7 6.1 0.00 0.00 0.00 49 1018.1
20260503191553 57 221 0.9 3.5 0.00 0.00 0.00 50 1018.1
20260503191047 57 246 0.9 3.5 0.00 0.00 0.00 50 1018.1
20260503190544 58 281 0.9 3.5 0.00 0.00 0.00 50 1018.0
20260503190054 58 278 1.7 3.5 0.00 0.00 0.00 50 1018.0
20260503185545 58 281 0.0 2.6 0.00 0.00 0.00 49 1018.0
20260503185045 58 240 0.9 2.6 0.00 0.00 0.00 50 1018.0
20260503184557 59 300 0.0 4.3 0.00 0.00 0.00 50 1017.9
20260503184044 59 313 0.0 5.2 0.00 0.00 0.00 50 1017.8
20260503183544 59 0 0.9 5.2 0.00 0.00 0.00 49 1017.8
20260503183053 59 198 0.9 3.5 0.00 0.00 0.00 49 1017.8
20260503182544 60 248 0.9 3.5 0.00 0.00 0.00 48 1017.7
20260503182045 60 214 0.0 4.3 0.00 0.00 0.00 48 1017.7
20260503181553 60 254 0.9 4.3 0.00 0.00 0.00 48 1017.7
20260503181043 60 197 1.7 4.3 0.00 0.00 0.00 47 1017.6
20260503180545 61 0 0.9 2.6 0.00 0.00 0.00 47 1017.6
20260503180100 61 200 0.9 2.6 0.00 0.00 0.00 47 1017.5
20260503175546 61 263 0.9 3.5 0.00 0.00 0.00 46 1017.5
20260503175044 62 0 0.9 5.2 0.00 0.00 0.00 46 1017.5
20260503174554 62 0 0.9 6.1 0.00 0.00 0.00 45 1017.4
20260503174044 63 191 1.7 6.1 0.00 0.00 0.00 45 1017.5
20260503173545 63 197 1.7 6.1 0.00 0.00 0.00 44 1017.4
20260503173107 63 182 1.7 4.3 0.00 0.00 0.00 44 1017.5
20260503172543 64 202 0.9 5.2 0.00 0.00 0.00 43 1017.5
20260503172043 64 186 0.9 5.2 0.00 0.00 0.00 43 1017.4
20260503171555 65 199 0.9 6.1 0.00 0.00 0.00 43 1017.5
20260503171043 65 180 1.7 6.1 0.00 0.00 0.00 42 1017.4
20260503170544 66 300 1.7 7.0 0.00 0.00 0.00 42 1017.5
20260503150543 70 267 2.6 7.8 0.00 0.00 0.00 36 1017.8